timestamp,wind_dir_avg,wind_spd_avg,wind_spd_max_dir,wind_spd_gust,battery_voltage,lat,long
2021-07-03 00:04:01+00:00,62.0,6.04,63.0,6.76,12.81,47.59359,-54.27349
2021-07-03 00:14:01+00:00,62.0,6.5,60.0,7.13,12.65,47.59359,-54.27349
2021-07-03 00:24:01+00:00,70.0,5.48,73.0,6.28,12.65,47.59359,-54.27349
2021-07-03 00:34:01+00:00,65.0,6.41,58.0,7.13,12.65,47.59359,-54.27349
2021-07-03 00:44:01+00:00,65.0,6.25,64.0,6.95,12.65,47.59359,-54.27349
2021-07-03 00:54:01+00:00,62.0,6.06,65.0,6.85,12.65,47.59359,-54.27349
2021-07-03 01:04:01+00:00,66.0,5.61,70.0,6.3,12.65,47.59359,-54.27349
2021-07-03 01:14:01+00:00,65.0,6.35,66.0,7.14,12.57,47.59359,-54.27349
2021-07-03 01:24:01+00:00,72.0,5.69,75.0,6.34,12.57,47.59359,-54.27349
2021-07-03 01:34:01+00:00,70.0,5.3,65.0,5.83,12.57,47.59359,-54.27349
2021-07-03 01:44:01+00:00,70.0,4.86,68.0,5.87,12.57,47.59359,-54.27349
2021-07-03 01:54:01+00:00,72.0,4.33,71.0,5.82,12.57,47.59359,-54.27349
2021-07-03 02:04:01+00:00,67.0,4.67,72.0,5.48,12.57,47.59359,-54.27349
2021-07-03 02:14:01+00:00,61.0,4.37,58.0,5.15,12.57,47.59359,-54.27349
2021-07-03 02:24:01+00:00,58.0,5.14,52.0,6.29,12.57,47.59359,-54.27349
2021-07-03 02:34:01+00:00,55.0,5.36,57.0,6.17,12.57,47.59359,-54.27349
2021-07-03 02:44:01+00:00,54.0,5.91,54.0,6.47,12.57,47.59359,-54.27349
2021-07-03 02:54:01+00:00,68.0,6.21,69.0,6.65,12.57,47.59359,-54.27349
2021-07-03 03:04:01+00:00,64.0,5.69,62.0,6.26,12.57,47.59359,-54.27349
2021-07-03 03:14:01+00:00,50.0,6.93,53.0,7.45,12.57,47.59359,-54.27349
2021-07-03 03:24:01+00:00,56.0,6.33,57.0,7.0,12.57,47.59359,-54.27349
2021-07-03 03:34:01+00:00,71.0,5.33,71.0,6.32,12.57,47.59359,-54.27349
2021-07-03 03:44:01+00:00,52.0,6.66,53.0,7.67,12.57,47.59359,-54.27349
2021-07-03 03:54:01+00:00,51.0,6.66,48.0,7.71,12.57,47.59359,-54.27349
2021-07-03 04:04:01+00:00,61.0,5.91,60.0,6.54,12.57,47.59359,-54.27349
2021-07-03 04:14:00+00:00,65.0,5.95,67.0,6.64,12.57,47.59359,-54.27349
2021-07-03 04:24:00+00:00,71.0,5.19,75.0,5.98,12.57,47.59359,-54.27349
2021-07-03 04:34:00+00:00,63.0,5.35,57.0,6.2,12.57,47.59359,-54.27349
2021-07-03 04:44:00+00:00,54.0,6.29,56.0,6.92,12.57,47.59359,-54.27349
2021-07-03 04:54:00+00:00,59.0,6.18,56.0,6.9,12.57,47.59359,-54.27349
2021-07-03 05:04:00+00:00,63.0,6.9,69.0,7.75,12.57,47.59359,-54.27349
2021-07-03 05:14:00+00:00,56.0,6.18,59.0,6.97,12.57,47.59359,-54.27349
2021-07-03 05:24:00+00:00,53.0,6.79,53.0,7.17,12.57,47.59359,-54.27349
2021-07-03 05:34:00+00:00,47.0,6.22,47.0,7.09,12.57,47.59359,-54.27349
2021-07-03 05:44:00+00:00,52.0,6.38,51.0,7.41,12.57,47.59359,-54.27349
2021-07-03 05:54:00+00:00,55.0,5.78,54.0,6.63,12.57,47.59359,-54.27349
2021-07-03 06:04:00+00:00,70.0,5.29,69.0,6.38,12.57,47.59359,-54.27349
2021-07-03 06:14:01+00:00,63.0,5.48,62.0,6.14,12.49,47.59359,-54.27349
2021-07-03 06:24:01+00:00,59.0,6.45,60.0,7.02,12.49,47.59359,-54.27349
2021-07-03 06:34:01+00:00,61.0,6.47,57.0,7.55,12.49,47.59359,-54.27349
2021-07-03 06:44:01+00:00,63.0,5.71,61.0,6.51,12.49,47.59359,-54.27349
2021-07-03 06:54:01+00:00,66.0,5.59,72.0,6.03,12.49,47.59359,-54.27349
2021-07-03 07:04:01+00:00,67.0,6.19,65.0,7.19,12.49,47.59359,-54.27349
2021-07-03 07:14:00+00:00,67.0,5.41,61.0,6.67,12.41,47.59359,-54.27349
2021-07-03 07:24:00+00:00,62.0,5.05,62.0,5.75,12.41,47.59359,-54.27349
2021-07-03 07:34:00+00:00,70.0,5.34,66.0,6.64,12.41,47.59359,-54.27349
2021-07-03 07:44:00+00:00,70.0,5.03,74.0,6.29,12.41,47.59359,-54.27349
2021-07-03 07:54:00+00:00,61.0,5.93,72.0,7.46,12.41,47.59359,-54.27349
2021-07-03 08:04:00+00:00,74.0,3.82,70.0,4.87,12.41,47.59359,-54.27349
2021-07-03 08:14:01+00:00,57.0,6.03,52.0,7.0,12.41,47.59359,-54.27349
2021-07-03 08:24:01+00:00,58.0,6.35,58.0,6.96,12.41,47.59359,-54.27349
2021-07-03 08:34:01+00:00,71.0,5.4,58.0,6.28,12.41,47.59359,-54.27349
2021-07-03 08:44:01+00:00,59.0,5.57,50.0,6.47,12.41,47.59359,-54.27349
2021-07-03 08:54:01+00:00,62.0,5.65,58.0,6.47,12.41,47.59359,-54.27349
2021-07-03 09:04:01+00:00,50.0,6.34,51.0,7.13,12.41,47.59359,-54.27349
2021-07-03 09:14:00+00:00,50.0,5.74,47.0,6.28,12.41,47.59359,-54.27349
2021-07-03 09:24:00+00:00,51.0,6.05,54.0,6.76,12.41,47.59359,-54.27349
2021-07-03 09:34:00+00:00,51.0,5.22,50.0,6.25,12.41,47.59359,-54.27349
2021-07-03 09:44:00+00:00,54.0,5.57,51.0,6.22,12.41,47.59359,-54.27349
2021-07-03 09:54:00+00:00,60.0,4.55,55.0,5.52,12.41,47.59359,-54.27349
2021-07-03 10:04:00+00:00,55.0,5.13,52.0,5.94,12.41,47.59359,-54.27349
2021-07-03 10:14:01+00:00,56.0,4.71,61.0,5.6,12.97,47.59359,-54.27349
2021-07-03 10:24:01+00:00,67.0,5.53,68.0,6.19,12.97,47.59359,-54.27349
2021-07-03 10:34:01+00:00,54.0,5.1,51.0,5.6,12.97,47.59359,-54.27349
2021-07-03 10:44:01+00:00,57.0,5.94,59.0,6.64,12.97,47.59359,-54.27349
2021-07-03 10:54:01+00:00,71.0,4.97,71.0,5.36,12.97,47.59359,-54.27349
2021-07-03 11:04:01+00:00,66.0,4.98,64.0,5.78,12.97,47.59359,-54.27349
2021-07-03 11:14:01+00:00,62.0,4.32,62.0,4.91,13.68,47.59359,-54.27349
2021-07-03 11:24:01+00:00,57.0,5.02,55.0,5.98,13.68,47.59359,-54.27349
2021-07-03 11:34:01+00:00,69.0,5.31,73.0,5.76,13.68,47.59359,-54.27349
2021-07-03 11:44:01+00:00,70.0,4.94,69.0,5.61,13.68,47.59359,-54.27349
2021-07-03 11:54:01+00:00,63.0,4.87,66.0,5.46,13.68,47.59359,-54.27349
2021-07-03 12:04:01+00:00,59.0,4.88,63.0,5.76,13.68,47.59359,-54.27349
2021-07-03 12:14:01+00:00,56.0,4.98,55.0,5.56,13.68,47.59359,-54.27349
2021-07-03 12:24:01+00:00,56.0,4.46,54.0,5.14,13.68,47.59359,-54.27349
2021-07-03 12:34:01+00:00,66.0,3.82,68.0,4.47,13.68,47.59359,-54.27349
2021-07-03 12:44:01+00:00,52.0,4.36,52.0,5.11,13.68,47.59359,-54.27349
2021-07-03 12:54:01+00:00,47.0,4.12,42.0,4.9,13.68,47.59359,-54.27349
2021-07-03 13:04:01+00:00,44.0,4.19,39.0,4.6,13.68,47.59359,-54.27349
2021-07-03 13:14:01+00:00,46.0,4.47,50.0,5.06,13.76,47.59359,-54.27349
2021-07-03 13:24:01+00:00,48.0,3.94,44.0,4.67,13.76,47.59359,-54.27349
2021-07-03 13:34:01+00:00,51.0,3.04,58.0,3.81,13.76,47.59359,-54.27349
2021-07-03 13:44:01+00:00,48.0,3.37,40.0,3.91,13.76,47.59359,-54.27349
2021-07-03 13:54:01+00:00,64.0,3.71,67.0,4.13,13.76,47.59359,-54.27349
2021-07-03 14:04:01+00:00,54.0,3.76,50.0,4.37,13.76,47.59359,-54.27349
2021-07-03 14:14:01+00:00,56.0,3.1,58.0,3.51,13.76,47.59359,-54.27349
2021-07-03 14:24:01+00:00,40.0,3.19,35.0,3.68,13.76,47.59359,-54.27349
2021-07-03 14:34:01+00:00,47.0,3.44,48.0,4.27,13.76,47.59359,-54.27349
2021-07-03 14:44:01+00:00,44.0,4.0,39.0,4.59,13.76,47.59359,-54.27349
2021-07-03 14:54:01+00:00,38.0,4.08,35.0,4.53,13.76,47.59359,-54.27349
2021-07-03 15:04:01+00:00,37.0,4.18,38.0,4.8,13.76,47.59359,-54.27349
2021-07-03 15:14:01+00:00,35.0,4.08,36.0,4.55,14.24,47.59359,-54.27349
2021-07-03 15:24:01+00:00,33.0,4.16,33.0,4.76,14.24,47.59359,-54.27349
2021-07-03 15:34:01+00:00,40.0,4.17,41.0,4.53,14.24,47.59359,-54.27349
2021-07-03 15:44:01+00:00,32.0,4.09,32.0,4.45,14.24,47.59359,-54.27349
2021-07-03 15:54:01+00:00,33.0,4.11,33.0,4.45,14.24,47.59359,-54.27349
2021-07-03 16:04:01+00:00,30.0,3.08,31.0,3.31,14.24,47.59359,-54.27349
2021-07-03 16:14:01+00:00,13.0,3.72,15.0,4.02,14.24,47.59359,-54.27349
2021-07-03 16:24:01+00:00,4.0,2.81,2.0,3.82,14.24,47.59359,-54.27349
2021-07-03 16:34:01+00:00,16.0,3.72,17.0,4.15,14.24,47.59359,-54.27349
2021-07-03 16:44:01+00:00,17.0,3.08,20.0,3.36,14.24,47.59359,-54.27349
2021-07-03 16:54:01+00:00,15.0,3.23,17.0,3.4,14.24,47.59359,-54.27349
2021-07-03 17:04:01+00:00,13.0,3.32,15.0,3.7,14.24,47.59359,-54.27349
2021-07-03 17:14:01+00:00,16.0,3.32,16.0,3.75,14.0,47.59359,-54.27349
2021-07-03 17:24:01+00:00,18.0,3.2,19.0,3.53,14.0,47.59359,-54.27349
2021-07-03 17:34:01+00:00,22.0,2.61,23.0,2.89,14.0,47.59359,-54.27349
2021-07-03 17:44:01+00:00,355.0,2.29,359.0,2.66,14.0,47.59359,-54.27349
2021-07-03 17:54:01+00:00,358.0,2.82,4.0,3.07,14.0,47.59359,-54.27349
2021-07-03 18:04:01+00:00,350.0,2.48,356.0,2.86,14.0,47.59359,-54.27349
2021-07-03 18:14:01+00:00,343.0,2.06,341.0,2.32,13.76,47.59359,-54.27349
2021-07-03 18:24:01+00:00,15.0,2.27,13.0,2.63,13.76,47.59359,-54.27349
2021-07-03 18:34:01+00:00,15.0,2.42,20.0,2.6,13.76,47.59359,-54.27349
2021-07-03 18:44:01+00:00,29.0,2.82,30.0,3.1,13.76,47.59359,-54.27349
2021-07-03 18:54:01+00:00,15.0,3.04,17.0,3.3,13.76,47.59359,-54.27349
2021-07-03 19:04:01+00:00,20.0,2.75,22.0,3.22,13.76,47.59359,-54.27349
2021-07-03 19:14:01+00:00,27.0,2.73,25.0,3.18,13.84,47.59359,-54.27349
2021-07-03 19:24:01+00:00,26.0,2.38,31.0,2.65,13.84,47.59359,-54.27349
2021-07-03 19:34:01+00:00,19.0,2.16,17.0,2.35,13.84,47.59359,-54.27349
2021-07-03 19:44:01+00:00,33.0,2.36,31.0,2.55,13.84,47.59359,-54.27349
2021-07-03 19:54:01+00:00,15.0,2.21,16.0,2.36,13.84,47.59359,-54.27349
2021-07-03 20:04:01+00:00,359.0,1.58,359.0,2.1,13.84,47.59359,-54.27349
2021-07-03 20:14:01+00:00,359.0,2.16,2.0,2.49,13.76,47.59359,-54.27349
2021-07-03 20:24:01+00:00,357.0,2.32,352.0,2.57,13.76,47.59359,-54.27349
2021-07-03 20:34:01+00:00,359.0,2.57,3.0,2.92,13.76,47.59359,-54.27349
2021-07-03 20:44:01+00:00,350.0,2.54,352.0,2.78,13.76,47.59359,-54.27349
2021-07-03 20:54:01+00:00,3.0,2.68,358.0,3.09,13.76,47.59359,-54.27349
2021-07-03 21:04:01+00:00,7.0,3.13,1.0,3.52,13.76,47.59359,-54.27349
2021-07-03 21:14:01+00:00,13.0,3.78,15.0,4.14,13.92,47.59359,-54.27349
2021-07-03 21:24:01+00:00,21.0,3.04,23.0,3.39,13.92,47.59359,-54.27349
2021-07-03 21:34:01+00:00,23.0,2.9,27.0,3.17,13.92,47.59359,-54.27349
2021-07-03 21:44:01+00:00,34.0,3.35,34.0,3.78,13.92,47.59359,-54.27349
2021-07-03 21:54:01+00:00,81.0,2.28,94.0,3.6,13.92,47.59359,-54.27349
2021-07-03 22:04:01+00:00,102.0,2.86,126.0,4.28,13.92,47.59359,-54.27349
2021-07-03 22:14:01+00:00,100.0,1.94,112.0,3.11,13.68,47.59359,-54.27349
2021-07-03 22:24:01+00:00,119.0,3.04,123.0,3.88,13.68,47.59359,-54.27349
2021-07-03 22:34:01+00:00,134.0,2.81,134.0,3.16,13.68,47.59359,-54.27349
2021-07-03 22:44:01+00:00,126.0,2.58,125.0,3.02,13.68,47.59359,-54.27349
2021-07-03 22:54:01+00:00,84.0,0.95,73.0,1.53,13.68,47.59359,-54.27349
2021-07-03 23:04:01+00:00,84.0,1.76,81.0,2.55,13.68,47.59359,-54.27349
2021-07-03 23:14:01+00:00,73.0,1.25,91.0,1.91,13.21,47.59359,-54.27349
2021-07-03 23:24:01+00:00,73.0,1.81,73.0,2.49,13.21,47.59359,-54.27349
2021-07-03 23:34:01+00:00,62.0,1.44,71.0,2.19,13.21,47.59359,-54.27349
2021-07-03 23:44:01+00:00,50.0,2.44,49.0,2.59,13.21,47.59359,-54.27349
2021-07-03 23:54:01+00:00,54.0,1.6,53.0,1.99,13.21,47.59359,-54.27349
